Fort Worth Alliance, TX

12:02 PM CDT on August 19, 2017 (GMT -0500)
Fort Worth Alliance

Weather History for KAFW - April, 2014

Change the Weather History Date:

Wednesday, April 16, 2014

  Actual Average Record
Temperature  
Mean Temperature 52 °F -  
Max Temperature 66 °F 73 °F 98 °F (2006)
Min Temperature 39 °F 52 °F 39 °F (1999)
Degree Days  
Heating Degree Days 12    
Growing Degree Days 2 (Base 50)    
Moisture  
Dew Point 36 °F    
Average Humidity 51    
Maximum Humidity 70    
Minimum Humidity 36    
Precipitation  
Precipitation 0.00 in - - ()
Sea Level Pressure  
Sea Level Pressure 30.02 in    
Wind  
Wind Speed 10 mph (SSE)    
Max Wind Speed 23 mph    
Max Gust Speed 32 mph    
Visibility 10 miles    
Events      
Averages and records for this station are not official NWS values.
T = Trace of Precipitation, MM = Missing Value Source: NWS Daily Summary

Daily Weather History Graph

Daily Weather History Graph

Search for Another Location

Airport or City:

Trip Planner

Search our weather history database for the weather conditions in past years. The results will help you decide how hot, cold, wet, or windy it might be!

Date:

Astronomy

Apr. 16, 2014 Rise Set
Actual Time 6:58 AM CDT 8:00 PM CDT
Civil Twilight 6:32 AM CDT 8:25 PM CDT
Nautical Twilight 6:02 AM CDT 8:56 PM CDT
Astronomical Twilight 5:31 AM CDT 9:27 PM CDT
Moon 9:40 PM CDT (4/16) 7:49 AM CDT (4/16)
Length of Visible Light 13h 53m
Length of Day
13h 02m
Full, 98% of the Moon is Illuminated
Apr 16
Full
Apr 22
Last Quarter
Apr 29
New
May 6
First Quarter
May 14
Full

Hourly Weather History & Observations

Time (CDT) Temp. Windchill Dew Point Humidity Pressure Visibility Wind Dir Wind Speed Gust Speed Precip Events Conditions
12:53 AM 44.1 °F 41.5 °F 30.0 °F 58% 30.10 in 10.0 mi South 4.6 mph - N/A   Partly Cloudy
1:53 AM 44.1 °F 42.5 °F 30.0 °F 58% 30.09 in 10.0 mi SSE 3.5 mph - N/A   Partly Cloudy
2:53 AM 42.1 °F 38.4 °F 32.0 °F 67% 30.08 in 10.0 mi South 5.8 mph - N/A   Partly Cloudy
3:53 AM 42.1 °F 39.2 °F 30.9 °F 65% 30.06 in 10.0 mi SSE 4.6 mph - N/A   Scattered Clouds
4:53 AM 39.9 °F 36.7 °F 30.9 °F 70% 30.07 in 10.0 mi South 4.6 mph - N/A   Scattered Clouds
5:53 AM 44.1 °F 39.5 °F 30.0 °F 58% 30.07 in 10.0 mi South 8.1 mph - N/A   Scattered Clouds
6:53 AM 42.1 °F 37.1 °F 30.0 °F 62% 30.08 in 10.0 mi South 8.1 mph - N/A   Scattered Clouds
7:53 AM 45.0 °F 40.6 °F 32.0 °F 60% 30.10 in 10.0 mi South 8.1 mph - N/A   Scattered Clouds
8:53 AM 48.9 °F - 32.0 °F 52% 30.11 in 10.0 mi South 11.5 mph 24.2 mph N/A   Mostly Cloudy
9:53 AM 53.1 °F - 32.0 °F 45% 30.11 in 10.0 mi South 20.7 mph 27.6 mph N/A   Mostly Cloudy
10:53 AM 57.0 °F - 32.0 °F 39% 30.08 in 10.0 mi SSE 23.0 mph 29.9 mph N/A   Mostly Cloudy
11:53 AM 60.1 °F - 34.0 °F 38% 30.06 in 10.0 mi SSE 20.7 mph 27.6 mph N/A   Mostly Cloudy
1:53 PM 63.0 °F - 36.0 °F 37% 30.01 in 10.0 mi SSE 19.6 mph 27.6 mph N/A   Scattered Clouds
2:53 PM 64.9 °F - 37.0 °F 36% 29.97 in 10.0 mi South 23.0 mph 32.2 mph N/A   Scattered Clouds
3:53 PM 66.9 °F - 39.0 °F 36% 29.94 in 10.0 mi SSE 16.1 mph 27.6 mph N/A   Scattered Clouds
4:53 PM 66.0 °F - 39.0 °F 37% 29.93 in 10.0 mi South 15.0 mph 24.2 mph N/A   Scattered Clouds
5:53 PM 66.0 °F - 39.9 °F 38% 29.91 in 10.0 mi South 15.0 mph 27.6 mph N/A   Scattered Clouds
6:53 PM 64.0 °F - 41.0 °F 43% 29.91 in 10.0 mi SSE 20.7 mph 27.6 mph N/A   Partly Cloudy
7:53 PM 62.1 °F - 42.1 °F 48% 29.92 in 10.0 mi SSE 15.0 mph 21.9 mph N/A   Partly Cloudy
8:53 PM 60.1 °F - 42.1 °F 51% 29.94 in 10.0 mi SE 11.5 mph - N/A   Clear
9:53 PM 57.9 °F - 43.0 °F 58% 29.97 in 10.0 mi ESE 11.5 mph - N/A   Clear
10:53 PM 55.9 °F - 42.1 °F 60% 29.99 in 10.0 mi SE 11.5 mph - N/A   Clear
11:53 PM 54.0 °F - 42.1 °F 64% 29.99 in 10.0 mi SE 10.4 mph - N/A   Clear